Theta_e
329 330 330 330 329 329 329 328 332 332 331 334 334 334 329 330 328 325 332 333 331 331 328 329 328 329 332 329 332 333 332 339 340 343 346 339 336 338 336 332 332 334 334 334 336 336 336 332 328 329 329 330 328 324 328 330 330 330 328 330 332 328 323 318 314 313 313 311 310 312 315 318 325 328 327 326 327 330 331 331 331 329 329 327 326 324 320 317 315 317 318 319 321 320 319 316 310
328 330 330 330 330 330 329 327 336 338 336 337 335 334 332 330 328 328 336 338 333 331 330 329 329 331 331 330 331 331 332 333 332 337 339 335 338 338 336 333 332 334 334 334 335 335 336 330 327 330 328 329 328 327 330 331 330 328 327 329 332 331 325 318 313 315 316 313 311 314 316 314 318 325 325 326 327 328 330 330 329 329 328 326 326 325 321 319 316 312 312 313 318 319 315 311 308
326 329 330 330 331 329 329 329 336 337 333 336 337 336 332 329 331 331 331 332 330 330 332 330 330 331 330 332 333 333 333 331 331 334 334 335 336 335 335 332 333 335 334 335 335 334 336 330 325 328 327 326 329 331 332 331 329 328 327 327 330 329 323 318 315 316 316 315 313 315 322 321 316 320 324 326 327 327 329 328 328 327 327 325 324 324 320 316 313 309 308 308 310 313 311 307 308
324 329 330 330 330 329 335 335 340 339 333 336 336 336 336 332 332 331 325 324 329 332 331 330 332 331 331 335 334 334 332 329 331 331 331 334 334 334 333 332 334 335 334 335 335 334 335 332 325 325 326 324 329 333 331 329 328 328 326 325 327 323 318 316 315 313 314 317 318 314 319 324 317 316 323 326 326 326 327 326 325 324 324 324 324 323 321 316 310 307 307 307 307 308 308 307 307
323 328 330 330 331 330 335 334 336 336 333 339 337 336 339 335 334 334 328 325 329 332 329 329 334 333 333 335 333 335 332 329 329 329 329 331 333 334 331 333 335 334 335 334 335 334 335 334 323 321 324 322 326 331 330 327 326 327 325 323 322 318 313 312 312 311 311 316 321 317 317 323 320 316 320 325 327 325 325 325 325 324 322 323 323 320 322 319 309 307 308 309 308 307 309 309 308
323 328 331 330 330 328 333 333 334 336 335 337 337 338 338 331 330 330 328 327 329 330 328 329 332 334 334 334 334 333 332 331 329 328 329 329 331 333 331 334 336 335 335 334 335 334 335 332 320 316 320 320 322 327 328 325 324 324 321 320 318 314 311 311 310 311 309 312 317 319 321 323 320 319 321 323 325 326 325 325 325 324 322 324 323 318 320 320 310 308 309 309 309 308 310 308 308
324 329 331 331 331 329 336 339 338 341 336 330 333 339 335 327 324 326 328 328 329 329 329 330 331 334 335 335 336 333 332 332 329 328 329 328 330 333 332 334 337 335 335 335 335 335 334 329 319 315 315 317 318 322 325 321 319 318 316 315 314 312 311 312 310 311 309 310 312 316 322 322 316 320 323 320 322 326 326 324 325 324 322 325 326 318 315 317 311 309 309 309 310 309 309 308 308
325 329 329 334 338 334 338 338 337 340 334 327 329 330 329 326 322 327 330 327 328 329 329 331 331 333 334 335 337 336 333 330 329 329 329 328 329 332 332 334 337 336 335 335 335 335 334 328 323 322 316 313 313 315 318 315 313 313 311 310 310 311 311 312 310 311 311 310 311 313 321 322 317 318 322 321 319 323 323 320 323 323 320 322 324 320 315 316 310 310 310 308 309 308 308 308 308
325 331 329 335 339 336 339 337 336 336 335 333 328 325 326 327 324 328 332 328 327 327 328 331 331 330 332 333 335 336 334 331 329 329 329 329 329 331 333 334 335 336 337 336 335 336 334 330 329 329 323 315 310 310 311 310 310 309 308 308 309 311 311 311 311 312 311 311 310 312 320 321 319 319 320 322 319 319 323 321 322 323 319 320 323 321 320 320 312 309 311 308 308 309 308 308 308
326 331 330 336 338 336 340 339 339 339 338 333 328 327 327 326 324 325 330 329 327 326 328 330 329 329 332 333 334 335 335 333 330 329 330 331 329 330 333 334 335 336 337 336 336 336 335 333 331 333 328 317 310 309 308 308 308 308 308 308 309 311 311 311 312 312 311 312 311 310 315 318 318 318 320 323 320 317 321 323 324 322 317 321 323 321 323 324 317 310 309 309 308 308 308 308 308
327 331 331 338 340 337 339 339 342 343 339 333 329 328 324 324 324 324 327 328 327 326 327 328 330 330 332 333 333 334 335 333 331 329 329 331 331 330 333 334 336 336 336 336 336 336 336 335 333 335 330 318 312 312 311 311 310 309 309 308 309 311 312 311 311 311 312 312 311 310 312 318 319 316 318 319 318 316 316 318 322 320 313 318 322 319 320 322 320 315 309 309 308 308 308 307 308
326 333 338 342 341 338 338 339 341 342 343 341 334 326 322 324 326 327 327 327 327 326 326 328 330 332 336 335 333 333 333 333 331 329 330 332 332 332 333 334 336 337 337 336 336 336 336 336 335 336 330 318 314 316 316 316 315 312 309 308 309 310 311 311 311 311 312 312 311 312 311 315 318 315 315 314 313 313 312 312 316 317 312 312 316 314 313 313 315 314 310 309 309 309 308 308 308
327 333 341 341 337 338 336 338 341 339 346 344 331 326 325 325 326 328 327 327 326 326 327 327 329 332 337 337 334 333 333 333 331 330 331 332 332 332 333 333 336 337 337 337 337 336 336 337 336 337 332 319 318 321 321 321 320 316 312 309 308 309 311 311 312 312 311 312 311 312 311 311 314 313 313 311 312 312 311 310 310 314 312 310 313 311 310 309 309 310 310 309 309 309 308 308 308
328 332 337 336 333 338 336 338 340 336 345 341 328 328 328 325 325 326 326 329 328 327 328 326 327 331 333 336 335 333 333 332 330 331 332 332 332 332 332 334 336 337 337 337 337 337 337 337 336 337 334 324 323 327 328 327 325 323 318 313 309 308 309 310 311 312 310 311 311 311 310 310 311 311 311 310 311 311 311 311 309 311 310 310 312 311 309 309 309 309 309 309 309 309 308 308 308
328 331 337 340 335 337 336 336 340 339 343 338 328 329 329 327 326 325 325 329 329 327 328 327 327 330 331 335 335 331 332 332 330 330 332 333 332 332 332 334 335 336 337 336 336 337 336 337 336 337 336 331 329 331 332 332 331 329 325 319 314 310 309 309 309 311 311 311 311 311 310 310 311 311 311 311 310 311 310 310 310 310 310 309 310 310 309 309 310 310 309 308 308 309 309 309 309
327 331 336 340 337 337 336 336 339 340 341 334 329 329 329 329 328 326 324 326 328 327 328 327 328 329 329 331 332 330 332 332 329 330 332 333 333 333 334 334 335 336 336 335 336 337 337 337 337 337 337 335 333 333 334 334 334 333 331 327 321 317 313 311 309 309 310 311 310 311 311 311 311 311 310 311 311 311 310 310 310 310 310 310 309 309 309 310 310 310 309 309 309 309 309 309 309
326 329 335 338 336 336 336 337 338 337 339 335 329 328 329 330 329 327 325 325 327 327 328 328 328 329 330 330 330 330 331 331 329 329 332 333 333 334 334 335 336 335 335 334 334 336 337 337 337 337 336 336 336 335 335 335 335 334 334 332 329 325 320 316 314 311 309 310 310 310 310 311 310 311 311 310 311 310 310 310 310 310 310 310 310 309 309 310 310 310 310 310 309 309 310 310 309
326 332 335 335 336 336 335 338 335 333 336 333 328 327 328 330 328 326 325 326 327 327 327 328 328 328 329 329 330 331 331 331 329 328 330 331 332 333 333 334 335 334 334 333 332 333 336 338 337 337 336 337 337 336 336 336 336 335 335 333 332 330 327 323 321 318 313 310 309 310 310 310 310 311 311 311 311 310 311 310 310 310 310 310 310 310 310 310 310 310 310 310 310 310 310 310 310
328 334 334 332 335 334 331 334 332 331 332 330 328 327 327 328 327 325 325 324 324 328 329 327 328 328 328 329 330 331 331 331 329 328 329 329 330 331 331 332 332 333 332 332 330 330 334 337 337 337 337 336 337 336 336 337 337 336 335 334 333 332 331 328 326 324 321 315 310 309 309 310 310 310 310 310 311 311 311 311 310 310 310 310 310 310 310 310 310 310 310 310 310 310 310 310 310
328 332 334 333 333 331 328 330 330 330 331 329 328 327 328 328 327 326 324 322 324 328 329 327 328 329 328 329 330 331 332 332 330 329 329 329 329 329 330 330 329 329 329 331 330 329 330 335 338 337 337 337 337 336 336 337 337 337 337 336 334 333 332 330 327 326 324 321 316 311 309 309 309 309 310 310 310 310 310 311 310 311 311 310 310 310 310 310 310 310 310 310 310 310 310 310 310
328 327 330 332 330 330 329 329 330 330 329 328 327 328 328 328 327 326 323 325 328 327 325 326 328 328 328 328 329 330 332 332 331 329 329 329 329 328 329 328 328 328 329 330 330 329 328 331 335 338 338 338 337 337 336 336 337 337 337 336 334 333 332 331 329 328 326 324 322 317 312 310 310 310 309 309 309 310 310 310 310 310 311 310 311 310 310 310 310 310 310 310 310 310 310 310 310
330 327 325 327 327 329 328 326 329 329 328 328 327 328 328 327 326 326 324 325 328 325 323 325 326 326 327 328 328 330 332 332 331 330 329 329 328 327 328 328 329 330 330 329 329 329 328 327 330 334 336 337 337 337 337 337 337 336 336 335 334 333 332 331 331 330 328 327 325 322 318 313 311 310 310 310 309 309 309 309 309 309 310 310 310 310 310 310 310 310 310 310 310 310 310 310 310
329 330 326 325 326 327 326 325 328 328 328 327 326 327 326 325 325 325 324 324 326 325 324 325 325 325 325 326 328 329 330 331 331 330 329 328 327 326 326 327 327 328 329 329 328 328 328 328 328 329 331 332 334 335 335 336 336 336 336 335 335 334 332 331 331 330 330 330 328 326 323 318 315 313 312 311 310 310 309 309 309 308 309 309 309 309 309 309 309 309 309 310 309 309 310 309 309
327 329 329 327 325 325 325 325 327 328 327 326 326 325 324 325 326 324 324 324 326 327 327 326 327 326 324 324 325 327 329 330 330 329 329 328 327 326 326 326 326 328 328 328 328 328 327 328 328 328 328 328 328 329 330 332 333 334 334 335 334 333 332 330 328 327 328 329 329 328 325 323 320 317 315 313 313 312 311 310 309 309 309 309 308 309 309 309 308 309 309 309 309 309 309 309 309
327 327 328 327 326 326 326 326 327 327 326 326 325 324 323 324 325 323 323 326 326 327 328 328 328 327 326 325 325 327 329 330 330 330 330 329 329 328 327 326 326 327 327 327 328 327 327 327 328 329 328 327 327 325 325 326 328 329 330 330 331 331 330 327 325 324 323 323 325 326 325 323 320 318 316 315 314 313 312 311 310 309 309 309 309 309 309 309 308 308 308 308 309 309 309 309 309
328 326 326 326 327 327 326 327 327 328 326 325 324 324 324 323 324 324 324 326 327 326 327 327 328 327 327 327 326 327 328 329 330 330 330 330 330 329 327 326 326 325 326 327 327 327 326 327 327 328 328 328 327 327 325 323 323 324 323 324 325 326 324 323 322 321 319 318 318 319 320 320 318 316 314 314 313 312 311 311 310 310 310 310 309 310 309 310 310 310 310 310 310 309 309 309 309
328 326 326 326 327 327 327 328 328 328 327 325 325 325 324 323 324 325 326 326 326 325 326 327 327 327 327 328 327 327 328 328 329 330 331 331 330 329 327 326 325 324 325 325 325 326 327 327 326 327 327 328 328 327 326 325 322 320 320 320 321 320 320 320 319 317 317 316 315 316 316 316 315 314 313 313 313 314 314 314 314 314 315 315 313 314 313 313 313 313 313 313 312 311 310 310 310
328 327 327 327 326 328 328 329 328 328 328 326 326 326 325 324 325 324 325 327 327 325 326 327 327 327 327 327 327 327 327 327 329 330 331 330 330 328 327 325 324 323 323 323 323 325 326 326 326 326 326 327 327 327 326 325 323 320 319 319 319 318 319 319 317 316 316 316 316 316 316 316 315 316 316 316 317 318 319 319 320 320 320 320 319 319 319 318 318 318 317 317 317 316 315 315 314
328 328 330 329 328 329 329 329 328 328 328 326 325 327 327 325 326 324 324 326 325 325 326 327 328 328 327 327 327 327 327 327 328 329 329 329 329 329 328 326 326 324 323 323 323 324 324 324 325 325 325 326 326 326 326 326 324 322 320 319 318 319 319 318 317 316 316 317 317 317 317 317 317 318 318 319 320 320 321 322 322 322 322 322 322 322 321 321 321 320 320 319 319 319 319 319 318
328 328 329 332 331 330 329 328 329 328 327 325 326 330 331 328 326 324 325 326 325 325 325 326 327 327 327 327 327 326 327 327 327 327 327 327 328 329 329 328 328 326 325 324 324 323 322 323 323 323 324 324 325 325 326 326 325 324 323 321 320 320 319 318 317 317 317 318 318 318 318 318 318 319 319 319 320 320 321 321 321 322 322 322 322 321 321 321 320 319 318 318 317 318 318 318 318
327 325 326 332 332 330 329 328 328 329 327 325 327 330 332 330 327 325 326 327 326 325 324 324 325 325 325 325 325 325 325 325 326 327 327 327 327 328 328 328 329 328 327 325 323 323 323 323 323 323 322 322 323 323 325 326 326 326 325 324 323 322 321 320 319 319 319 319 319 319 319 319 319 319 319 319 320 320 320 320 321 321 321 321 321 321 320 319 317 316 316 315 314 314 314 314 315
326 326 328 331 330 330 329 327 327 329 327 324 327 331 331 330 327 324 326 326 326 325 324 325 324 324 325 324 323 323 323 324 324 325 326 326 327 327 327 327 328 328 327 326 324 324 323 323 323 323 322 322 321 322 323 325 325 326 325 325 324 324 324 322 322 321 321 321 320 320 320 320 320 320 320 320 320 320 320 321 321 321 321 321 321 320 319 317 316 314 314 313 313 312 312 312 313
326 327 329 329 329 329 327 326 326 327 328 326 327 330 331 331 327 324 325 325 326 326 325 325 324 324 324 324 322 322 323 323 323 324 324 325 326 327 327 326 326 327 327 327 326 325 324 323 323 323 323 322 322 321 322 323 324 324 324 324 324 324 324 324 323 323 323 323 322 322 322 322 322 322 322 322 322 322 322 322 322 322 322 321 321 320 318 317 316 316 314 314 314 313 313 313 313
327 327 328 327 328 328 326 327 326 325 328 328 328 328 329 331 327 324 325 325 324 325 325 325 324 323 322 322 321 321 322 323 323 324 324 325 325 325 326 326 326 326 326 327 327 326 325 324 324 324 324 323 323 322 322 322 323 323 323 323 323 322 321 322 322 323 323 323 324 324 324 324 324 324 324 324 323 323 323 323 322 322 322 321 321 319 318 318 317 317 316 315 316 316 315 315 315
327 327 327 327 326 327 327 327 325 325 328 329 330 328 328 328 326 324 325 324 323 323 324 324 323 322 321 321 321 321 321 322 323 324 323 324 324 323 324 324 325 326 326 326 326 327 326 325 325 325 325 324 324 323 322 323 323 323 323 323 322 320 319 318 319 320 320 321 322 322 323 323 323 322 323 323 323 322 322 322 322 321 321 321 320 320 319 319 319 319 319 318 318 318 318 318 318
327 326 326 326 326 325 325 325 324 325 327 328 329 329 328 328 326 324 324 322 321 320 321 322 321 321 321 321 321 321 321 322 323 323 323 324 324 323 323 323 325 326 326 326 326 326 325 325 325 326 325 325 325 325 323 323 323 323 323 322 321 319 318 318 318 318 318 319 319 319 320 320 320 320 320 320 320 320 320 319 320 319 320 320 320 320 320 320 320 321 321 321 321 321 321 321 321
325 326 326 326 326 324 324 325 323 323 327 329 328 328 328 327 325 322 321 319 318 319 320 320 321 322 322 322 322 322 322 322 322 323 323 324 324 324 323 322 324 326 326 327 327 327 326 325 325 325 326 326 326 325 324 323 323 322 322 322 321 320 320 320 320 319 319 319 320 319 319 319 319 319 319 319 319 319 319 319 319 319 319 319 320 320 320 321 321 321 322 322 322 322 322 322 322
323 325 326 327 326 326 325 324 323 322 326 329 328 329 328 325 325 321 319 320 319 319 320 320 321 322 322 322 322 322 322 322 322 323 323 323 324 324 324 322 322 324 325 326 327 327 327 326 325 325 325 326 326 325 325 324 323 323 322 322 322 322 322 321 321 322 322 322 322 322 322 322 323 323 323 323 323 322 322 322 321 321 320 320 320 320 320 321 321 321 322 322 322 322 322 323 324
323 323 324 326 326 326 326 325 324 324 325 328 328 327 327 325 324 321 319 320 320 320 320 321 321 321 322 322 322 322 322 322 322 322 323 323 324 324 324 323 322 323 323 323 325 325 326 326 326 325 325 325 326 326 326 325 324 324 324 324 323 323 323 323 323 323 323 324 325 326 326 326 326 326 326 326 326 326 326 326 325 324 324 323 323 323 322 322 322 322 323 323 323 324 323 323 324
324 322 323 325 325 325 326 324 324 325 324 326 327 326 325 325 324 323 320 320 320 321 321 321 321 321 321 321 322 322 322 323 322 322 323 323 323 324 324 324 324 323 323 322 322 323 323 324 324 325 325 325 326 327 327 327 326 326 326 326 325 325 325 324 324 324 325 326 327 328 327 327 327 326 325 325 326 326 327 327 327 327 327 326 326 326 325 325 325 325 325 325 325 326 325 325 325
323 321 322 324 324 324 324 323 324 325 324 324 326 326 325 325 325 324 321 320 320 320 320 320 321 321 321 321 321 321 322 322 322 321 323 323 323 323 323 324 323 323 323 322 322 322 322 322 322 322 322 323 324 324 325 326 327 328 328 327 327 327 327 326 326 326 326 327 327 326 325 325 326 326 325 325 325 325 326 326 327 327 327 327 327 327 327 327 326 326 326 326 327 327 327 327 326
321 321 322 322 323 323 324 324 323 325 325 323 324 327 327 326 325 324 322 321 321 319 319 319 320 321 320 321 321 321 322 322 322 321 321 322 321 321 321 321 320 320 320 320 320 320 320 320 320 320 320 320 321 321 322 323 324 326 328 328 328 328 328 328 327 327 327 327 327 326 325 325 326 326 326 326 326 326 326 325 326 326 326 326 326 326 327 327 327 327 327 327 327 327 328 328 327
321 321 322 322 322 323 324 323 321 323 324 322 323 326 328 326 325 325 324 323 322 321 320 318 319 320 320 320 320 319 319 320 321 320 320 319 318 318 318 318 318 318 318 318 319 318 318 319 319 319 319 320 320 320 320 321 322 324 325 327 328 329 329 328 328 328 328 328 327 326 326 325 326 327 327 327 328 327 326 326 326 326 326 326 326 326 326 326 326 326 327 327 327 327 328 328 327
322 320 321 323 323 323 324 322 321 320 320 321 321 322 324 324 324 325 325 324 323 322 321 318 317 318 319 318 317 317 317 317 317 317 317 316 317 317 317 317 317 317 318 317 318 318 318 319 319 319 319 319 320 320 320 321 321 322 323 324 327 328 329 329 329 329 329 328 328 328 327 327 327 328 328 328 328 328 327 326 326 326 326 326 326 326 326 325 326 326 326 327 327 327 327 328 328
321 319 320 322 322 323 323 322 322 320 320 322 321 321 322 322 322 322 320 321 322 320 320 318 315 316 317 316 317 316 316 316 316 316 316 316 317 317 317 317 317 317 317 317 317 318 318 318 319 319 319 319 319 319 319 319 320 321 322 324 325 326 327 328 329 330 330 329 329 329 329 329 329 329 328 329 329 328 327 326 326 327 326 326 326 326 326 326 326 326 326 327 327 327 327 328 328
317 318 320 320 320 320 320 321 321 321 321 322 321 322 321 320 321 321 318 320 321 319 318 316 314 315 316 316 316 316 316 316 316 315 316 316 316 316 316 316 316 316 316 317 317 317 318 318 318 318 319 319 320 320 319 319 319 320 320 321 323 324 325 327 329 330 330 330 330 330 330 329 329 328 328 328 328 327 327 326 326 327 326 326 326 326 326 326 326 326 326 327 327 328 328 328 328
315 319 322 321 320 320 319 319 320 321 322 321 321 321 320 319 320 321 321 322 322 319 318 317 315 314 316 316 316 315 315 315 315 315 315 315 314 313 313 312 312 313 313 315 315 316 317 318 318 319 319 320 320 320 320 319 319 319 320 320 321 322 323 325 327 329 329 330 330 329 328 327 326 325 325 325 325 325 325 326 326 326 326 326 326 326 326 326 326 327 327 327 328 328 328 328 328
316 321 321 319 320 320 320 320 319 320 321 321 322 321 320 320 319 319 321 321 321 320 319 319 317 314 315 316 315 315 315 315 315 314 313 311 310 308 308 308 308 309 310 311 312 312 314 315 317 318 319 320 321 321 320 320 320 320 320 320 320 320 321 322 325 326 326 326 325 324 323 323 323 323 323 323 324 324 325 326 326 326 326 326 326 326 326 326 327 327 327 328 328 328 328 328 328
318 320 319 318 318 318 320 320 319 319 320 320 322 322 321 321 318 318 320 318 318 318 316 316 315 314 315 315 314 314 314 313 311 310 309 308 307 306 306 306 306 307 307 307 308 309 310 311 312 314 316 318 319 320 321 321 320 320 320 319 319 320 320 321 323 323 323 322 322 322 322 322 323 323 323 323 324 324 325 325 325 325 325 325 325 326 326 326 326 327 327 328 328 328 328 328 328
318 318 318 318 317 316 317 318 318 318 319 318 318 320 321 322 319 318 319 317 315 314 314 315 315 314 314 313 313 312 311 310 309 308 307 306 306 305 305 305 305 306 306 306 306 307 307 308 309 309 311 312 314 316 317 319 320 320 321 320 320 320 320 320 321 321 321 321 322 323 323 323 323 323 324 324 324 324 324 324 324 324 324 324 324 324 324 325 325 326 326 327 327 327 327 327 327
316 317 317 317 317 317 317 317 318 318 319 317 316 318 320 323 321 316 315 314 311 311 313 314 313 313 312 311 310 310 308 308 307 306 306 305 305 304 303 303 303 304 304 304 305 305 305 306 307 308 308 308 309 310 311 313 316 317 318 320 320 321 321 321 321 322 322 323 323 323 323 323 323 323 323 323 323 323 323 323 323 322 322 322 322 322 322 323 323 324 324 325 325 325 325 325 325
314 314 317 317 317 319 318 317 319 319 319 318 317 319 320 321 319 313 312 312 310 310 311 311 311 310 310 309 309 308 307 306 305 305 305 304 303 303 302 302 302 302 303 303 303 304 304 304 305 306 307 307 307 307 307 309 311 312 313 315 316 318 319 319 320 320 320 321 321 322 322 322 322 322 322 322 321 321 320 321 320 320 320 320 320 320 321 321 321 321 322 322 322 322 323 323 323
313 313 315 314 314 319 318 316 317 317 317 317 318 319 319 318 317 314 314 314 312 311 310 309 310 309 309 309 308 307 306 304 304 304 303 303 302 302 302 302 302 302 302 303 303 303 304 304 304 304 305 306 306 306 306 307 307 308 309 311 312 313 313 314 315 316 316 317 318 318 318 319 319 319 319 319 318 318 318 318 318 318 318 318 318 318 318 318 318 318 319 319 319 319 320 320 321
315 315 314 312 312 317 318 316 316 316 315 317 318 319 319 318 318 318 317 314 313 313 312 310 309 309 309 308 307 305 304 303 303 302 302 302 302 302 302 302 302 302 302 302 303 303 303 304 304 304 304 304 305 305 306 306 307 307 307 308 309 310 310 311 311 312 313 314 315 315 316 316 316 316 316 316 316 315 316 315 315 315 315 315 315 315 315 316 316 316 316 317 317 317 318 318 319
312 313 311 312 314 315 316 315 315 314 313 315 317 317 318 319 318 318 317 313 312 315 315 313 310 308 308 307 305 303 302 302 302 302 302 302 302 302 302 302 302 302 302 302 302 303 303 303 304 304 304 304 304 305 305 306 307 307 307 307 307 308 308 309 309 310 311 312 313 313 314 314 314 314 314 314 314 313 313 313 313 312 312 313 313 313 314 314 314 315 315 315 315 315 316 316 317
310 311 311 314 316 315 315 314 313 315 315 316 317 315 317 319 316 313 312 311 313 315 315 313 308 306 306 304 303 302 302 302 301 301 301 301 301 301 301 302 301 301 302 302 302 303 303 303 303 303 304 304 304 305 305 306 306 307 307 307 307 307 308 307 308 308 309 310 311 312 313 313 313 313 313 313 313 312 312 311 311 311 312 312 312 312 313 313 314 314 314 314 314 314 315 315 315
312 314 314 314 315 314 313 313 313 316 317 316 315 313 317 321 315 310 310 311 312 312 311 309 306 304 304 302 302 302 301 301 301 301 300 300 300 301 301 301 301 301 302 301 302 302 302 303 303 303 303 304 305 305 305 305 306 306 307 307 307 307 308 308 307 307 308 308 309 310 311 311 312 313 312 312 312 311 311 310 311 311 311 311 311 312 312 312 312 312 312 313 313 313 314 314 314
312 313 312 313 314 313 313 313 312 313 313 314 313 312 316 319 312 310 311 309 308 307 306 306 304 303 302 301 301 301 300 300 300 300 300 300 300 300 300 301 301 301 301 301 301 301 302 302 302 303 303 303 304 305 306 306 305 306 306 306 307 307 307 307 307 307 307 308 308 309 310 311 311 312 312 311 311 311 311 310 310 311 311 311 311 311 311 311 311 311 311 311 312 312 313 313 313
Wind_Speed
9 9 9 7 7 6 2 2 2 2 2 0 2 1 3 4 2 4 5 3 1 2 3 3 7 14 9 3 8 5 4 6 5 4 2 3 3 9 14 18 16 19 23 22 23 20 20 20 20 19 18 18 16 15 15 14 13 12 11 10 10 9 9 8 8 7 7 8 8 11 12 11 12 11 11 10 10 10 9 8 8 7 7 7 6 7 7 6 7 11 12 8 5 4 3 2 4
10 9 8 6 6 2 2 1 1 3 3 2 3 3 4 4 2 4 6 4 2 1 2 8 11 12 6 3 7 4 2 5 6 5 2 2 6 12 18 18 15 19 23 22 23 20 20 20 21 19 18 18 16 16 15 14 13 12 12 12 13 12 10 8 7 6 6 6 7 10 11 9 10 11 11 11 10 11 10 10 10 9 9 9 6 6 6 4 4 6 9 9 5 4 4 5 5
12 10 7 4 3 0 1 2 1 1 3 2 4 4 2 4 4 7 9 7 1 4 9 11 9 7 4 2 3 2 2 3 5 4 4 4 9 15 21 18 15 20 23 22 22 20 20 20 21 20 19 19 17 17 16 15 14 13 13 13 14 13 11 9 8 6 6 6 6 8 8 7 9 11 11 11 10 12 11 12 12 11 10 8 6 5 5 6 4 4 4 5 5 5 5 5 6
14 11 6 2 1 1 3 2 1 4 2 3 3 4 3 3 7 8 9 6 3 8 8 5 4 3 1 1 0 0 2 2 4 2 2 6 8 17 22 17 18 22 22 21 21 20 19 19 20 20 19 19 18 17 17 16 15 15 14 15 14 13 11 11 10 9 8 7 7 8 8 7 8 9 10 10 9 11 10 11 11 9 8 6 6 6 5 6 5 4 3 3 5 6 6 6 7
15 11 5 2 0 1 3 2 1 3 4 4 1 5 5 5 6 7 6 3 6 8 0 2 1 1 1 1 1 1 1 2 2 2 2 8 11 19 21 16 20 22 22 20 20 19 18 18 19 20 20 20 19 18 18 17 17 16 15 14 13 13 11 11 10 9 9 9 8 7 7 7 7 8 10 10 9 10 9 8 7 6 7 5 6 7 4 4 5 4 3 4 5 6 6 6 7
15 10 4 1 2 2 2 1 2 1 5 4 2 5 5 5 5 6 6 3 6 6 5 4 2 1 2 1 1 2 3 2 2 2 3 7 12 19 19 17 20 21 22 20 19 19 18 17 17 18 19 20 19 18 18 17 17 16 15 13 13 13 10 10 10 10 10 10 9 7 7 8 7 8 9 10 10 9 9 8 7 7 6 5 6 6 5 4 5 5 5 5 6 6 5 5 5
15 9 3 2 3 2 3 2 4 3 4 5 4 5 5 5 4 4 5 2 3 5 5 5 3 2 0 1 1 4 5 3 4 3 4 7 11 18 18 17 20 21 21 19 19 19 17 16 15 15 17 19 19 18 17 16 16 16 14 13 13 12 10 9 9 10 10 11 10 8 9 9 8 9 8 9 10 8 9 8 8 8 6 6 5 6 6 5 5 6 7 6 5 5 4 4 4
13 7 3 2 2 3 3 1 3 3 3 3 4 5 8 9 5 2 1 1 2 3 4 4 5 2 2 3 2 5 5 4 6 4 7 8 10 16 17 17 19 20 21 19 19 18 17 16 14 13 14 15 17 17 16 15 15 14 14 13 13 12 9 8 8 9 9 10 9 8 9 8 7 8 8 9 9 9 10 9 9 8 8 8 6 7 7 7 7 6 7 6 5 4 3 3 3
9 5 2 2 1 1 1 1 3 3 4 5 4 8 13 14 8 6 4 3 2 2 3 4 5 1 3 4 3 6 6 5 6 5 8 9 10 14 16 17 17 19 21 20 19 18 18 16 14 13 12 13 13 14 15 14 14 13 13 12 12 11 9 8 8 8 8 9 10 9 9 9 7 7 8 9 9 9 9 9 9 8 8 8 6 7 7 6 7 7 7 6 5 4 4 4 4
6 4 2 2 2 0 2 2 2 3 5 5 6 12 16 13 7 9 7 4 3 2 2 5 5 2 3 4 3 6 7 6 6 6 9 11 10 13 15 15 14 16 20 21 20 19 18 17 15 13 12 12 12 12 13 13 13 12 11 10 11 11 10 9 7 7 8 9 10 11 10 10 8 6 8 8 8 8 7 7 8 7 7 8 6 6 6 6 7 7 8 7 5 5 5 4 4
3 4 3 3 2 1 3 3 3 4 5 6 7 9 11 7 5 6 4 3 4 2 3 4 4 4 4 3 5 7 8 7 5 6 9 12 11 12 14 14 14 14 17 20 20 19 18 18 17 14 12 12 12 12 11 11 11 10 10 9 9 10 10 9 7 7 7 7 8 10 10 10 9 8 8 8 7 6 5 6 6 6 7 8 7 6 7 7 7 7 7 7 6 6 6 5 5
1 1 3 3 1 2 3 2 3 5 6 5 5 8 10 2 4 3 4 3 3 2 6 6 2 3 3 3 6 8 8 8 7 7 8 11 11 12 13 14 15 14 14 17 19 19 18 18 18 16 14 13 13 12 11 11 10 9 10 9 8 9 9 8 8 7 6 6 6 9 10 9 10 9 7 7 6 4 4 5 6 7 8 8 8 7 8 8 7 7 6 7 6 6 7 6 6
2 2 4 2 2 2 2 1 3 3 5 3 2 11 14 3 4 4 4 2 2 1 5 9 6 2 2 3 5 10 9 9 8 9 8 9 11 12 13 13 15 15 14 15 17 19 19 19 19 17 15 14 14 13 12 11 10 9 9 9 9 9 9 9 9 7 6 6 6 7 7 8 10 9 7 6 5 5 5 6 7 7 8 8 8 8 8 8 8 8 7 6 6 6 7 7 8
4 5 4 1 1 1 2 1 2 0 4 4 3 16 18 6 5 7 4 3 6 5 3 6 8 4 2 3 5 10 11 10 9 9 9 10 11 13 12 13 15 15 14 14 16 18 20 20 20 19 17 16 15 14 13 11 10 10 10 9 9 8 9 9 8 7 7 7 7 6 6 6 8 8 7 6 6 6 6 7 7 7 7 7 7 8 9 9 8 8 7 6 7 7 7 8 9
6 6 4 2 1 0 2 2 2 3 4 3 6 19 18 8 9 11 5 5 7 8 5 4 8 4 2 3 3 8 11 12 11 10 10 11 13 13 12 13 14 15 13 13 15 18 20 21 21 21 19 18 17 15 14 13 12 11 10 10 10 9 9 9 9 8 8 7 7 7 6 5 6 7 7 7 7 8 8 8 8 7 8 7 8 8 8 9 8 7 6 7 8 8 8 8 10
9 6 3 2 2 2 3 3 2 3 4 3 8 19 14 9 14 12 7 5 6 7 8 5 8 8 3 3 5 7 9 14 12 11 12 13 15 14 14 14 14 14 14 13 15 18 20 22 22 22 22 20 18 17 15 14 13 12 11 11 10 10 9 9 9 8 9 9 8 8 7 7 6 6 7 7 7 8 8 8 8 8 8 9 9 9 9 9 9 8 8 8 9 9 9 10 10
11 5 2 1 3 3 3 3 3 3 4 5 11 18 8 9 18 15 10 6 6 6 8 7 9 12 9 6 7 7 7 14 14 13 14 15 16 16 16 16 16 16 16 15 15 17 20 23 23 23 23 22 20 19 17 16 15 15 14 12 11 11 10 10 10 10 10 10 10 10 9 8 8 7 7 7 7 8 8 8 8 9 9 10 10 10 11 11 11 10 10 10 10 11 11 11 11
9 4 2 3 3 4 4 4 4 4 2 5 10 14 7 8 17 17 11 5 4 5 8 9 10 12 12 9 8 7 7 14 16 15 15 16 18 18 18 18 18 18 18 17 16 17 20 22 24 24 24 23 22 21 20 19 18 18 16 14 13 12 12 11 11 11 11 12 12 11 11 10 9 9 8 8 8 9 9 9 9 10 11 11 12 12 12 12 13 12 12 12 12 12 12 12 12
8 3 3 5 4 5 6 6 4 3 2 6 8 10 9 9 13 16 9 5 4 3 6 8 11 11 12 10 9 9 9 14 17 17 16 16 17 17 18 19 19 19 19 19 17 18 20 22 23 24 24 24 24 23 22 21 21 20 18 17 15 14 14 13 14 13 13 13 13 13 12 12 11 12 11 11 11 11 11 12 12 12 13 13 13 14 14 14 14 15 14 14 14 14 14 13 13
8 6 3 5 5 5 8 9 7 5 4 4 8 10 11 12 14 14 8 8 7 4 7 9 12 12 11 11 10 9 11 15 17 18 17 17 16 16 17 17 17 17 17 17 17 18 19 21 23 23 24 24 25 25 23 22 22 22 20 19 18 17 16 16 16 16 15 15 15 15 15 14 14 14 14 14 14 14 14 15 15 15 15 15 15 15 16 16 16 17 17 17 17 16 16 15 15
7 9 6 5 8 5 9 12 10 9 5 3 7 11 11 14 16 13 8 7 6 6 8 10 14 13 10 10 10 10 13 16 18 19 18 18 17 16 17 16 15 14 15 16 17 18 19 21 23 23 23 23 24 25 24 23 22 22 22 20 19 19 19 18 17 18 17 17 17 17 17 17 17 17 17 17 17 17 17 17 17 17 18 18 18 18 18 18 18 19 19 19 19 19 19 18 18
4 6 7 9 11 6 9 12 10 9 6 3 3 6 9 13 16 15 8 3 6 7 9 9 11 12 11 11 10 11 15 17 18 19 19 18 17 16 17 17 17 17 17 17 17 17 18 19 21 23 24 24 24 24 24 23 23 23 22 21 21 21 21 20 19 20 19 19 18 18 19 19 19 18 18 18 19 19 19 19 19 19 20 20 19 20 20 20 21 21 22 22 22 22 22 21 21
5 4 5 11 14 7 8 13 10 8 6 3 1 3 8 12 13 14 9 9 14 15 13 13 12 9 9 11 11 13 15 18 19 19 18 17 16 15 15 16 17 18 18 18 17 16 17 18 19 21 23 24 25 25 25 25 25 24 24 23 23 23 22 22 21 20 20 20 20 20 19 19 19 20 20 20 19 20 20 20 20 20 21 21 20 21 22 23 23 23 24 24 24 24 24 24 24
9 5 4 9 14 10 8 12 12 10 8 7 6 6 8 7 8 11 14 21 22 20 18 17 14 11 9 10 12 14 15 17 18 18 18 17 16 14 14 16 17 18 20 19 18 17 17 18 18 19 20 21 23 25 26 27 26 26 25 25 25 24 23 23 21 19 20 20 21 21 21 20 20 20 20 20 20 20 21 21 20 21 21 21 21 22 23 24 24 25 25 25 25 25 25 25 25
10 7 5 7 11 12 11 12 12 11 12 13 11 11 11 10 10 11 19 25 20 17 18 17 17 14 11 9 11 13 15 17 18 19 20 19 19 18 18 18 18 20 21 19 19 18 17 18 19 19 20 20 20 22 24 26 26 26 26 26 26 25 24 23 21 20 18 18 19 20 21 21 21 20 20 20 21 21 21 21 21 21 21 21 21 22 22 23 24 25 25 25 24 24 23 23 23
11 10 8 7 7 10 13 15 15 14 13 12 10 11 16 16 10 8 15 17 12 15 15 13 14 14 12 10 10 11 14 16 18 19 20 21 22 22 21 20 20 20 20 19 20 19 18 18 19 19 19 20 20 20 22 23 25 26 25 25 25 25 24 23 22 20 19 17 16 17 19 21 21 20 20 19 20 21 20 21 21 21 21 21 21 21 22 23 23 23 23 24 23 23 23 22 23
12 15 12 10 8 8 12 14 15 14 11 10 7 7 17 18 7 5 13 15 15 20 18 13 12 11 10 10 10 11 13 15 17 19 21 22 23 23 22 21 21 21 20 20 20 20 19 20 19 19 20 20 21 21 22 22 23 24 24 24 24 24 24 23 21 20 18 17 15 15 16 18 19 19 18 18 19 19 19 19 19 20 20 20 21 21 21 22 22 22 23 23 23 24 23 23 24
11 17 11 10 10 8 9 10 11 9 5 9 8 6 15 15 4 6 17 21 21 24 22 17 15 14 12 11 11 11 12 13 16 20 22 22 23 22 22 21 20 20 20 18 18 20 21 20 20 20 20 21 22 22 22 22 22 23 23 24 24 23 24 23 22 20 18 17 16 16 15 16 17 18 18 18 18 18 19 19 19 20 20 20 20 20 20 22 23 24 24 24 24 25 25 25 25
7 13 6 6 6 7 11 9 10 10 3 6 7 4 11 10 6 9 17 19 17 19 21 19 17 17 17 14 14 13 13 13 15 19 20 21 22 23 23 22 21 21 21 19 19 21 20 20 21 20 21 22 23 22 22 23 22 23 23 23 23 23 24 23 22 21 20 19 18 18 17 17 17 18 18 19 19 20 20 20 20 21 20 20 20 20 21 23 24 25 25 25 26 27 27 26 26
4 5 1 3 3 6 11 10 10 10 5 11 9 4 8 7 9 12 14 13 12 17 19 19 17 19 19 17 16 16 15 15 17 18 18 20 22 24 25 24 23 23 22 22 22 21 20 20 21 21 22 23 23 23 23 23 23 23 23 23 23 23 24 23 23 22 21 21 20 19 19 19 19 19 20 20 21 22 22 22 22 22 21 21 21 22 23 24 25 26 26 26 27 28 29 28 27
3 1 1 3 4 4 7 10 12 7 6 16 11 6 8 5 7 10 11 11 11 15 17 17 16 17 18 17 17 18 17 17 18 18 18 20 21 23 25 25 24 24 23 23 23 22 21 21 21 21 22 23 23 24 24 24 23 23 23 23 24 24 24 24 24 23 23 22 21 21 21 21 21 21 22 22 23 24 24 24 24 23 22 22 23 23 24 25 25 26 25 26 27 27 28 28 28
2 3 3 4 5 2 3 8 14 9 5 16 12 5 6 5 9 13 13 14 12 14 17 18 17 17 19 21 21 22 22 20 18 18 18 20 22 22 24 24 24 24 24 23 23 23 23 22 22 22 23 23 23 24 24 24 24 23 23 24 24 25 25 26 25 25 24 24 24 23 23 23 23 23 23 24 25 26 26 26 25 24 23 23 24 24 25 25 25 25 25 25 26 26 27 27 28
1 5 5 5 6 3 1 4 12 12 6 10 10 5 2 2 5 9 12 15 14 14 19 21 20 20 21 23 24 24 25 23 20 18 18 20 21 21 22 24 24 24 24 24 23 24 24 23 24 23 23 23 23 24 24 24 24 24 24 24 24 25 26 26 26 26 26 25 25 25 24 24 24 24 25 26 27 27 27 27 26 25 24 25 25 25 26 25 25 26 25 25 26 27 27 27 28
3 5 4 4 5 5 3 0 6 10 6 6 10 8 5 3 5 4 6 8 10 11 18 22 23 24 24 24 25 25 25 24 21 17 16 18 19 18 19 21 24 25 25 25 24 24 24 24 25 25 24 24 24 24 24 25 24 25 25 24 24 25 26 26 26 26 27 26 26 26 26 26 26 26 26 27 27 28 28 28 27 26 26 26 27 27 27 26 26 27 27 26 27 28 28 29 29
6 7 5 3 2 4 5 2 4 8 6 6 9 10 9 6 6 9 11 11 10 13 16 21 23 24 24 24 24 24 25 25 21 15 13 18 19 17 16 18 22 24 25 26 26 25 25 24 24 25 24 25 25 25 25 25 25 26 26 26 26 26 26 26 26 26 26 26 26 26 26 26 27 27 27 28 28 29 29 29 28 28 28 28 28 28 28 28 28 28 28 28 28 30 31 30 31
5 7 5 4 3 3 4 2 3 9 6 6 9 9 8 6 6 8 12 11 11 12 14 18 21 22 22 23 24 23 24 24 22 17 14 17 21 20 17 16 18 22 25 25 25 26 25 24 25 24 24 24 24 25 26 27 27 28 28 28 28 27 26 26 26 26 26 26 26 26 26 27 27 28 28 29 29 29 30 30 29 29 29 29 30 30 29 29 29 30 30 30 31 32 32 32 32
2 4 4 5 5 4 3 2 3 6 5 6 8 8 8 6 4 6 9 9 7 8 12 17 19 19 20 23 24 23 23 23 22 20 19 20 21 21 19 15 15 18 21 24 24 24 24 25 26 24 23 24 24 25 26 28 28 28 29 29 28 27 27 27 26 26 26 26 26 26 27 27 27 28 29 29 29 30 31 31 30 30 31 31 31 31 31 31 31 32 32 32 33 33 34 33 33
2 1 4 5 5 4 2 3 3 2 2 4 5 7 9 7 4 6 8 7 8 10 12 15 17 16 17 22 24 25 26 25 23 22 21 20 20 20 20 17 15 15 16 19 21 22 23 25 26 25 25 26 25 26 27 28 28 28 29 28 28 28 28 28 28 27 27 27 27 27 28 27 27 27 28 29 30 31 32 32 32 32 32 33 33 33 33 33 34 34 34 35 35 35 36 35 35
2 1 2 2 3 2 1 1 1 2 1 3 2 5 8 6 6 7 8 8 11 15 17 18 20 18 18 21 23 25 27 26 26 25 23 21 20 19 20 20 18 17 16 16 17 19 20 22 23 25 26 27 27 27 28 28 28 29 30 29 29 30 30 30 30 29 29 28 27 28 27 27 26 26 27 29 30 31 32 32 33 33 33 33 34 34 35 35 35 35 35 36 36 37 37 37 37
2 1 2 2 2 3 1 1 0 2 0 1 0 4 5 5 5 6 11 16 17 21 22 22 23 23 24 25 24 24 25 25 26 26 25 23 21 21 21 22 21 20 19 19 18 19 20 20 20 21 24 25 27 29 30 30 31 32 32 32 32 32 32 32 32 32 31 30 29 29 28 28 27 27 27 29 30 31 32 32 32 33 33 33 33 34 35 35 35 35 35 36 36 37 38 37 37
1 1 2 1 2 2 1 1 2 2 2 2 3 5 5 5 7 7 11 16 16 18 19 19 23 26 26 26 26 26 26 26 26 25 26 26 24 23 22 24 25 24 24 23 23 24 24 24 24 24 24 25 27 29 30 31 34 36 35 35 35 35 35 34 34 33 32 32 30 29 28 28 28 28 28 29 30 31 32 32 32 32 32 32 33 33 33 33 34 35 35 35 35 36 37 36 36
0 2 5 4 2 1 3 4 4 1 2 2 3 4 5 3 6 7 7 7 8 9 10 14 20 24 24 25 27 28 28 27 26 25 26 27 27 27 27 27 28 28 28 27 27 27 27 27 27 27 27 27 28 29 30 32 35 37 38 39 39 38 37 36 34 33 32 31 30 29 28 28 29 30 31 31 31 31 32 32 32 32 31 31 31 32 32 32 33 33 33 34 34 35 35 36 36
1 3 5 7 6 4 4 4 3 0 2 3 2 3 4 2 2 4 4 4 5 5 6 11 17 21 22 23 24 25 26 27 27 27 27 28 30 30 30 30 29 30 30 30 30 29 29 29 29 28 28 27 27 27 28 31 34 36 38 40 41 42 41 39 36 34 33 33 32 32 31 31 32 32 33 34 34 33 33 33 33 33 33 32 32 32 32 32 31 31 31 33 34 33 35 37 36
1 3 3 7 7 6 6 5 4 3 2 2 1 2 4 5 3 3 5 5 6 6 6 9 15 20 22 23 24 25 27 27 27 28 28 28 29 29 29 30 29 29 29 30 30 29 29 28 28 28 28 27 27 26 26 29 32 35 36 39 40 42 43 41 39 37 36 36 37 35 34 35 35 35 36 36 36 35 34 34 34 34 34 33 33 33 32 31 31 31 31 33 34 34 36 37 36
2 1 4 5 5 4 5 5 4 3 2 2 3 4 3 6 4 2 3 5 6 7 7 8 13 20 22 24 26 25 25 26 26 25 24 24 25 26 27 27 27 26 26 26 26 26 27 26 27 28 28 28 28 27 28 29 30 32 34 37 39 39 40 40 39 40 39 39 40 38 37 37 37 37 37 37 37 37 36 35 34 34 34 32 32 33 32 31 31 32 32 32 33 34 35 36 37
3 2 6 5 5 4 3 3 3 3 3 4 5 6 3 5 3 1 1 2 5 6 6 7 12 18 21 23 24 21 21 21 21 19 19 20 20 21 21 20 20 20 20 19 20 20 21 22 23 25 26 26 27 27 27 28 28 30 32 34 36 36 37 38 39 40 40 40 41 40 38 38 37 37 36 36 37 36 36 35 33 33 32 31 31 32 31 31 31 31 31 31 33 34 34 35 37
3 4 5 5 4 4 3 2 2 2 3 4 6 8 4 4 3 3 2 3 4 5 5 6 9 15 18 18 17 15 15 16 17 17 17 17 18 18 18 19 18 18 17 16 16 16 16 17 18 19 21 22 23 24 25 25 25 27 30 32 33 34 34 36 38 39 38 38 39 38 36 35 34 34 34 34 34 34 33 33 31 30 30 30 30 31 31 30 30 29 29 31 32 33 34 34 36
5 4 3 3 2 2 2 2 2 2 4 3 5 8 6 4 4 1 3 4 3 4 4 4 6 11 13 11 11 13 14 15 15 17 20 22 23 24 24 23 23 21 20 19 19 17 16 16 16 17 17 17 17 17 20 22 22 24 26 28 31 31 31 33 34 35 34 34 34 33 32 31 31 32 32 32 32 31 31 30 29 29 29 30 30 30 30 29 29 29 29 30 31 32 33 34 35
4 3 4 3 1 2 1 1 1 2 4 2 4 7 4 6 6 4 8 11 7 5 7 7 9 11 10 9 11 13 16 20 22 25 28 29 29 28 27 27 26 25 24 23 21 20 19 18 17 16 15 14 13 12 13 16 18 20 22 24 27 28 29 30 31 31 30 29 30 30 29 30 30 31 31 31 30 28 28 28 28 28 29 29 30 30 30 29 29 29 30 30 31 31 32 33 34
4 3 3 3 2 1 1 2 1 1 4 3 2 5 0 5 5 3 7 12 9 5 7 9 10 7 5 11 16 21 24 27 29 31 32 31 29 29 30 30 29 28 27 26 24 23 21 20 19 18 16 14 13 12 11 11 12 14 16 19 22 24 26 27 29 30 29 28 27 27 27 27 28 29 29 29 27 26 27 28 28 29 29 29 30 30 30 29 29 30 30 30 31 31 31 32 34
3 3 4 4 3 3 3 3 1 2 3 4 1 2 2 3 2 2 5 7 6 9 6 7 8 10 17 22 24 27 29 30 31 30 30 29 29 32 33 33 33 31 30 28 27 26 25 23 21 21 20 18 17 15 14 12 11 10 10 11 13 15 17 19 22 23 23 23 23 23 24 24 25 26 26 26 26 26 27 28 28 28 28 28 29 29 29 29 29 29 30 30 31 31 31 32 33
1 1 4 2 2 4 2 3 4 3 1 3 1 2 3 4 3 2 1 2 8 13 15 19 20 20 24 25 24 28 31 32 31 29 29 31 33 35 35 34 33 32 30 29 28 27 26 24 23 22 21 21 21 20 19 16 13 11 10 8 7 8 9 11 14 15 17 18 19 21 22 23 24 25 25 25 26 26 26 27 27 27 27 27 28 28 28 28 28 29 29 30 30 30 31 32 33
1 2 3 1 1 5 3 2 2 3 1 2 2 2 3 3 5 5 6 7 8 10 13 16 18 20 23 23 24 28 31 30 30 29 31 34 36 35 33 32 32 31 30 28 26 25 24 24 23 21 20 20 21 22 23 22 19 15 12 10 9 8 8 8 10 11 13 16 18 21 23 24 25 25 25 25 25 25 25 25 25 25 25 25 25 25 26 26 27 28 29 29 30 30 31 32 32
3 1 3 1 3 3 3 1 1 2 2 2 4 4 2 1 3 4 7 8 7 6 7 10 13 17 21 23 25 28 30 30 32 32 33 35 35 33 32 31 29 28 27 26 25 24 23 23 23 22 20 20 21 22 23 23 22 20 18 16 14 13 12 11 11 10 11 12 14 16 19 21 21 21 22 22 21 21 21 21 21 21 21 21 22 22 23 23 24 25 26 27 28 28 30 31 31
4 2 2 3 1 1 2 2 1 2 3 2 2 4 3 3 3 3 5 4 5 5 5 6 10 16 20 23 25 28 30 32 34 34 34 33 32 32 31 30 29 28 26 26 25 23 23 23 23 23 22 21 22 23 23 23 22 22 21 21 20 20 19 17 15 14 13 13 13 13 14 15 15 16 17 17 17 17 18 19 19 20 20 20 21 21 21 22 22 23 24 25 26 26 28 30 30
3 2 2 2 2 3 2 2 2 2 2 2 3 2 2 4 4 1 2 1 5 4 5 6 10 18 21 23 25 27 29 31 32 32 31 30 30 29 29 29 29 29 28 27 26 25 25 24 24 24 24 24 24 25 26 25 25 24 23 22 22 23 23 23 21 19 18 17 16 16 15 15 15 16 16 17 17 18 19 20 20 21 21 21 21 21 21 21 22 23 24 24 25 25 26 29 29
1 1 1 1 1 1 0 0 2 3 3 1 3 2 3 5 3 5 5 4 5 6 7 8 13 18 20 22 25 27 28 28 28 28 27 27 27 27 27 27 27 28 28 28 28 27 27 26 26 26 26 25 24 24 25 26 27 26 24 22 21 22 24 26 24 22 21 21 20 20 19 19 18 18 19 20 20 20 21 22 22 22 22 22 22 21 21 22 23 24 24 25 25 26 27 28 28
4 2 2 2 1 1 0 2 1 2 2 3 3 3 5 4 3 4 3 3 5 8 9 9 14 18 20 23 25 26 26 26 25 25 25 26 27 27 27 27 28 29 30 30 30 30 29 29 29 29 28 28 26 25 25 25 25 25 23 20 20 23 26 27 26 23 23 23 22 22 22 22 21 21 21 21 22 22 22 23 23 23 22 22 22 22 22 23 24 25 25 26 26 27 28 29 29
Wind_Direction
336 334 328 327 333 331 316 147 126 351 78 154 273 218 261 251 263 294 285 289 256 247 219 177 143 151 152 197 195 185 162 168 179 143 192 259 197 178 170 175 175 179 181 172 175 178 175 175 176 174 172 169 166 170 173 174 175 175 175 175 179 195 198 199 198 193 193 190 194 193 191 183 177 181 183 187 187 177 181 190 192 207 223 235 240 237 243 243 228 220 223 220 209 207 206 227 180
341 339 335 330 337 319 237 111 83 337 50 326 276 185 254 313 305 253 241 229 238 250 149 143 138 156 159 135 154 121 147 198 211 189 259 248 173 168 163 172 178 180 180 174 175 178 177 176 178 177 173 169 169 172 173 175 178 179 181 183 187 200 210 213 208 199 198 196 193 191 199 204 196 190 181 182 192 191 189 198 203 216 235 241 243 253 251 226 211 206 213 219 220 216 225 249 222
348 343 345 336 333 155 180 55 86 81 75 261 271 237 259 331 267 246 236 229 238 120 122 131 128 140 146 90 118 119 198 221 205 216 279 196 168 162 163 170 175 180 181 177 175 177 178 177 180 182 176 170 171 174 175 177 181 183 184 190 197 207 217 226 230 230 226 215 204 189 191 212 209 195 186 180 190 199 200 210 213 224 239 242 236 239 235 216 213 198 193 211 228 232 237 248 225
354 347 350 343 319 104 80 52 141 125 145 221 264 262 231 274 270 269 264 263 186 141 116 110 113 117 147 326 91 198 231 215 169 194 254 169 162 165 165 168 171 178 183 180 176 177 180 179 183 185 180 174 174 176 179 181 186 187 189 195 204 217 225 233 241 244 236 217 203 192 186 207 217 197 189 186 188 197 205 219 221 229 231 225 223 220 212 211 218 207 190 210 220 229 236 231 214
352 350 348 315 225 126 86 73 117 124 199 194 192 259 231 235 273 288 303 318 181 176 46 356 35 110 120 144 157 298 240 197 157 120 154 160 162 169 169 166 169 177 183 182 177 179 183 183 185 186 184 180 178 180 183 185 189 192 197 201 211 227 235 237 238 237 230 217 203 202 194 200 214 193 189 192 192 196 201 217 228 232 218 214 233 231 209 200 211 201 203 218 208 215 226 216 208
347 354 355 348 129 137 115 148 185 205 228 177 180 259 249 243 279 298 323 350 192 220 283 283 268 147 121 132 208 203 157 162 170 120 152 168 167 172 173 166 169 178 184 183 179 180 184 186 186 187 187 186 185 186 188 190 194 199 206 211 220 235 241 237 233 227 225 222 213 205 202 204 207 198 196 195 193 200 199 197 214 224 205 207 240 230 203 200 205 194 207 217 202 205 209 198 202
345 351 355 85 100 80 121 183 202 231 245 178 187 252 261 271 301 309 325 360 208 252 270 262 215 156 106 200 230 187 169 167 152 126 159 177 173 175 177 169 171 179 185 185 181 182 185 187 187 189 191 192 193 193 194 196 201 207 215 219 227 238 238 230 226 223 223 227 224 206 208 221 218 209 200 195 194 200 208 201 208 224 205 196 233 232 210 210 212 198 206 216 207 203 198 193 199
346 348 3 80 74 25 106 196 233 217 249 226 224 253 270 286 290 261 277 177 235 265 259 249 189 176 268 194 215 197 181 169 154 145 166 179 180 178 181 175 175 179 185 186 183 184 186 186 188 192 196 198 200 200 202 206 210 215 221 225 229 236 235 225 220 224 223 226 231 215 211 224 229 212 192 195 197 196 216 216 209 226 214 193 216 232 216 210 220 212 205 214 218 207 201 201 204
347 353 24 68 129 29 63 287 271 235 261 269 259 269 281 291 272 212 196 217 253 286 269 220 179 228 242 194 232 211 193 182 169 163 167 180 186 184 185 181 182 182 184 186 185 188 188 189 190 196 201 203 205 205 209 213 216 218 223 230 231 232 232 229 225 227 228 227 231 227 214 216 233 215 191 198 200 198 216 219 211 221 214 201 209 225 219 210 219 221 213 218 223 215 211 212 218
356 25 78 73 106 46 321 280 261 257 259 268 278 282 291 295 251 205 188 216 252 290 274 201 205 257 205 204 238 213 206 197 181 175 170 179 190 190 190 185 186 186 184 185 187 191 192 193 195 200 205 205 207 208 212 216 219 220 223 230 230 227 227 229 233 234 238 237 228 227 221 213 226 220 199 205 208 208 216 217 216 218 212 215 222 227 227 221 223 226 225 226 229 225 228 233 234
10 36 87 81 68 204 245 247 258 273 276 294 299 304 314 300 207 192 179 223 265 271 226 191 230 218 176 242 240 221 214 200 181 175 171 177 191 195 194 190 186 187 187 186 189 193 195 197 199 203 207 205 204 206 211 216 223 225 228 233 228 225 225 225 231 233 234 238 224 224 224 213 219 224 212 217 224 219 217 219 216 218 220 223 232 240 240 238 236 236 234 232 236 238 242 247 243
23 20 68 98 149 205 210 221 263 280 297 311 316 352 356 303 173 185 190 219 267 283 235 202 223 193 165 284 237 228 219 204 179 164 172 178 189 196 198 197 188 185 186 189 192 195 198 201 202 205 208 205 202 204 208 213 221 227 232 236 230 226 226 226 227 223 219 227 227 224 221 211 213 224 223 225 229 217 215 223 219 220 224 228 237 246 250 252 250 252 250 243 245 244 247 250 248
125 159 85 132 190 180 193 220 266 296 312 299 301 353 353 293 221 242 204 202 225 251 249 216 227 219 198 284 241 232 219 209 191 163 174 183 190 195 196 197 190 185 186 193 199 200 201 203 206 208 210 207 202 202 207 211 216 224 231 234 232 229 228 232 228 218 219 225 229 223 213 208 211 222 227 228 224 220 222 227 230 230 227 231 239 246 252 256 256 259 260 258 260 255 250 250 252
140 164 118 171 185 144 193 239 253 190 279 274 350 354 350 324 298 291 224 223 237 212 241 218 217 221 236 269 261 244 223 212 202 173 178 188 190 193 194 192 192 190 189 197 203 206 205 205 208 210 212 212 208 205 206 210 214 221 230 232 232 232 233 238 233 219 220 227 233 232 221 212 210 216 225 230 228 228 231 231 235 239 237 237 242 249 254 257 260 263 265 267 267 264 258 252 254
153 153 107 131 112 243 212 220 194 146 241 274 3 355 350 345 347 325 269 240 254 227 222 204 196 202 246 226 277 275 233 218 209 184 183 188 188 190 192 191 195 197 196 201 205 210 209 209 210 211 214 215 215 213 211 213 215 221 227 233 233 233 235 241 243 230 223 228 236 241 240 232 220 218 225 232 231 229 232 233 235 239 244 244 247 254 260 262 260 261 265 267 269 268 266 262 259
155 146 72 124 176 235 204 202 161 140 245 267 356 359 356 347 355 341 310 278 264 223 207 204 196 204 233 237 288 297 237 218 211 195 187 188 189 189 194 195 199 203 204 207 207 210 211 212 213 214 216 217 221 221 221 221 221 225 227 232 235 236 237 241 248 244 235 232 233 237 241 242 237 233 234 237 239 236 233 234 237 241 246 249 252 254 259 264 262 259 258 259 266 270 270 271 267
149 141 80 161 191 202 194 205 178 162 266 287 352 3 6 335 347 346 326 290 246 223 206 211 215 220 237 263 281 282 235 217 211 202 193 192 193 191 196 198 201 206 209 212 211 211 211 214 216 218 219 220 223 224 227 228 229 230 231 233 235 239 239 240 247 249 247 241 237 235 236 240 241 243 243 245 247 247 243 242 243 246 250 252 253 253 255 261 263 261 260 259 262 265 268 269 268
146 126 149 200 193 194 187 189 182 154 268 302 345 0 8 333 340 344 334 293 250 247 225 220 231 235 239 251 263 264 232 216 214 210 204 200 200 200 201 202 205 209 212 214 215 214 213 214 216 219 222 223 225 227 227 229 232 233 233 236 236 241 242 242 244 248 251 250 246 241 238 239 241 244 246 247 248 251 252 250 249 248 250 251 252 253 255 259 264 265 264 264 263 264 266 265 266
161 123 170 213 195 197 193 188 193 166 252 302 327 345 349 335 335 345 336 305 324 281 242 233 237 242 240 243 252 254 231 220 220 218 216 213 213 214 210 208 211 214 216 218 218 218 216 215 217 219 223 226 228 230 230 228 232 234 234 235 236 239 242 244 244 246 249 251 251 247 244 242 242 244 245 246 246 247 250 250 251 251 251 252 254 255 258 260 263 266 266 266 265 265 265 264 265
182 164 195 230 201 207 210 207 220 236 253 300 320 327 330 330 335 343 331 313 326 259 246 242 239 242 238 240 247 247 233 224 224 223 223 223 225 227 224 220 220 222 223 224 225 224 221 218 218 221 223 227 231 235 235 231 232 236 237 236 235 237 239 243 245 247 247 248 248 246 245 243 242 242 243 245 246 246 248 250 252 254 256 257 258 259 260 263 265 267 268 269 268 268 267 268 268
184 185 206 202 185 203 216 214 226 240 238 240 306 324 323 328 331 330 334 328 312 271 270 261 256 260 252 251 251 244 233 228 227 225 225 226 228 232 234 235 234 233 230 228 230 230 228 224 222 223 224 228 233 238 240 238 237 237 239 239 238 238 239 241 243 247 249 249 248 247 247 245 245 244 244 245 247 248 249 251 253 255 258 259 261 263 264 264 266 268 270 271 271 272 272 271 271
186 212 208 181 178 194 214 217 226 228 223 227 304 329 318 325 325 321 327 284 271 297 318 313 291 280 272 270 262 245 233 230 230 229 229 228 230 235 238 239 237 234 231 231 233 233 233 230 228 227 228 230 234 239 242 244 243 243 244 244 243 243 244 243 241 243 248 251 251 250 248 247 248 248 248 248 249 251 253 253 254 256 258 260 262 264 266 266 266 267 269 270 271 271 272 272 271
210 241 209 191 188 190 210 217 219 209 213 244 270 304 310 327 323 318 315 274 285 297 306 319 319 303 282 274 264 249 238 235 235 237 237 235 236 240 242 242 240 237 235 235 235 236 236 234 233 231 231 232 235 239 242 244 246 248 249 249 249 248 248 249 245 242 244 250 253 254 252 252 252 252 252 252 252 254 256 257 257 258 259 261 262 264 267 268 269 269 270 271 272 272 272 272 272
213 229 203 206 207 203 206 212 214 210 225 261 278 296 299 313 313 313 307 293 293 295 293 297 304 305 290 274 265 255 249 246 244 246 246 247 248 249 249 248 247 244 242 241 238 238 239 238 238 237 237 237 238 239 241 244 247 249 250 251 253 253 253 254 254 250 244 245 250 256 258 259 259 259 257 257 258 258 259 261 260 261 261 263 264 266 268 270 272 274 275 276 275 275 274 273 273
214 218 185 202 221 218 217 216 220 225 237 261 279 295 284 280 294 295 296 294 295 302 297 286 287 291 284 282 275 259 252 249 248 247 245 247 248 245 246 247 248 247 246 246 244 243 242 243 243 243 244 243 243 243 243 245 247 250 251 252 254 256 258 260 262 261 256 249 248 251 257 261 262 262 261 261 263 263 264 264 263 262 263 264 265 267 270 272 275 276 277 277 277 277 276 275 274
209 204 187 187 214 219 225 225 230 235 239 254 273 291 282 284 297 285 285 289 298 314 310 294 284 282 280 285 281 268 257 253 251 249 247 247 244 244 245 246 247 248 249 250 249 247 246 246 246 247 248 248 248 247 247 247 247 249 251 254 256 258 260 263 265 265 265 261 253 249 251 255 260 261 261 261 262 263 264 263 262 262 262 263 265 266 269 272 274 276 277 277 277 277 276 276 275
197 197 200 203 207 214 223 223 226 231 236 239 239 274 278 282 290 264 274 274 285 304 308 303 293 286 289 289 281 275 267 264 260 252 251 248 246 248 248 247 249 250 250 250 249 249 248 248 249 251 251 252 251 250 251 250 250 250 250 253 255 257 259 262 263 264 263 262 258 253 248 249 254 257 258 259 259 260 260 260 260 261 262 262 264 266 269 271 272 273 274 274 275 274 273 273 273
187 192 204 219 218 229 226 215 211 209 233 229 211 256 275 277 255 236 268 275 287 296 294 291 293 293 292 292 287 279 277 276 267 257 254 253 253 255 254 254 256 256 254 254 253 251 251 250 251 253 253 254 253 252 253 253 252 251 250 251 252 254 257 258 258 258 256 256 256 253 248 247 250 253 255 256 256 256 256 258 259 260 262 264 266 268 269 270 270 269 269 271 271 272 271 270 272
182 176 181 215 218 244 223 205 197 190 203 189 174 258 267 256 228 237 264 277 300 304 292 283 283 289 288 290 289 284 287 283 271 266 266 265 263 261 261 262 263 263 264 263 259 255 253 253 253 255 255 255 255 254 253 253 253 253 251 250 250 252 253 254 254 253 252 252 252 250 248 247 248 250 252 254 255 256 257 258 260 262 265 268 270 271 270 269 269 268 268 269 269 270 270 270 271
178 160 154 167 194 249 211 193 185 184 190 162 152 260 248 239 236 234 246 262 311 322 305 290 281 285 288 287 285 285 288 280 276 279 281 279 274 268 267 266 263 265 268 265 261 259 257 256 255 255 256 256 256 256 254 253 253 253 253 251 251 251 251 252 251 251 251 251 251 250 249 248 248 249 252 255 257 258 260 261 263 266 270 273 273 273 272 271 271 270 270 269 269 269 270 271 272
156 137 308 171 197 231 178 173 167 167 197 170 164 263 244 242 238 222 230 250 305 324 312 305 299 296 300 302 295 292 292 284 281 282 281 281 279 276 273 271 267 265 267 266 264 264 262 259 257 256 256 257 257 257 255 255 254 254 254 254 253 252 252 252 251 251 251 251 252 251 250 250 250 251 253 256 258 260 261 262 264 267 270 272 273 273 273 272 272 272 272 272 272 272 272 273 273
118 173 209 197 212 217 159 180 171 166 192 172 170 260 257 255 247 237 243 249 276 303 304 305 306 305 310 316 312 303 299 294 286 284 286 284 280 278 277 276 273 269 268 270 269 267 265 262 260 257 256 257 256 257 257 257 257 256 256 256 256 255 254 253 252 253 253 253 253 253 253 253 253 254 255 258 260 262 263 264 266 268 271 272 272 273 272 272 272 273 273 274 274 274 274 274 273
194 203 200 198 201 198 184 203 186 173 155 177 198 243 263 286 269 248 238 236 242 270 290 295 299 304 308 313 314 307 302 300 296 293 294 294 289 283 282 280 277 275 271 271 272 270 268 265 263 261 259 258 258 258 258 258 258 258 259 259 259 258 257 256 255 255 255 254 254 254 255 255 256 257 258 261 263 265 266 268 269 270 271 271 271 271 271 271 272 273 273 273 274 275 275 275 275
202 205 210 215 196 186 165 190 207 183 148 181 220 243 241 266 323 301 251 240 238 257 280 285 292 303 307 307 307 304 302 303 305 302 287 290 300 295 288 285 279 277 274 272 272 271 271 269 266 264 262 261 260 259 258 258 258 259 260 260 260 259 258 257 257 256 255 254 254 255 256 258 259 261 262 264 265 267 268 270 271 271 271 271 271 271 270 271 271 271 272 272 274 276 277 278 281
194 191 207 214 164 185 184 178 196 184 179 189 208 238 247 254 289 280 273 273 267 270 275 277 286 297 303 305 303 300 300 300 306 308 280 280 302 307 297 292 282 276 274 273 273 272 271 270 267 266 264 262 260 260 260 259 258 258 258 258 257 257 255 255 254 254 254 255 256 257 258 260 261 263 265 266 267 268 269 270 270 271 272 272 271 271 270 271 272 273 274 276 277 279 280 281 283
190 181 190 182 176 205 183 198 198 173 187 209 209 234 248 242 248 253 261 265 265 270 271 272 278 285 294 301 301 298 297 296 300 302 288 282 297 306 304 301 290 277 271 271 272 272 270 269 269 268 266 263 261 259 257 256 256 255 255 255 254 254 254 254 254 254 255 256 257 259 260 261 263 265 266 267 269 269 269 270 270 270 270 270 270 270 271 273 274 275 276 277 278 278 279 280 283
70 151 174 183 199 221 157 186 232 174 183 221 219 240 254 244 243 238 243 251 255 255 262 268 270 275 290 295 294 296 297 297 297 296 294 291 293 298 301 304 302 288 273 270 272 273 274 272 270 270 269 268 265 260 257 255 255 255 255 256 256 257 257 258 258 257 258 259 261 262 263 265 267 268 270 271 272 272 272 272 272 271 270 270 271 271 273 274 275 276 277 278 278 278 279 281 283
45 129 189 191 195 216 199 200 224 155 199 235 215 239 257 255 257 253 245 250 255 244 247 261 265 271 285 286 287 294 297 296 297 295 294 293 290 288 289 294 301 300 288 280 277 278 279 277 271 269 269 270 268 265 262 259 257 257 258 260 263 264 264 265 265 266 266 267 268 269 270 273 274 276 278 279 279 278 277 277 276 275 275 275 275 275 275 276 276 277 278 279 280 281 281 282 283
195 168 164 197 181 176 298 247 168 109 208 246 228 246 258 258 248 243 237 237 250 251 250 259 265 268 272 277 283 289 292 294 294 294 295 295 293 286 282 287 294 297 299 296 290 287 287 285 277 271 270 271 272 271 269 265 262 262 262 263 265 266 267 268 268 269 269 268 269 270 273 275 278 282 285 285 284 282 281 281 281 280 280 280 279 279 278 278 278 279 280 281 282 283 282 282 283
198 147 157 207 160 150 245 270 60 42 331 193 320 279 265 260 262 255 244 241 248 254 255 260 264 268 272 277 281 284 288 293 295 295 296 297 297 293 289 289 291 293 295 297 298 298 297 297 291 283 279 278 278 277 275 273 271 269 268 267 266 266 266 266 266 266 266 266 268 271 276 280 281 285 289 288 287 286 284 284 284 284 285 285 284 283 282 282 282 282 282 283 283 283 283 283 284
136 117 195 191 99 124 151 45 2 358 335 51 43 304 275 233 234 248 248 242 244 250 252 258 263 267 272 275 277 279 282 288 294 296 295 297 298 298 296 293 294 297 299 301 302 302 301 299 297 294 290 287 285 283 282 281 277 274 271 269 266 265 264 263 264 266 268 269 272 278 283 285 283 284 286 287 288 289 287 286 286 287 287 287 287 286 286 285 284 283 284 285 285 285 285 286 285
277 186 188 165 144 162 104 64 21 12 263 2 47 273 272 211 216 241 253 243 244 252 251 255 263 267 269 272 274 276 277 279 284 288 289 292 295 297 298 300 304 307 308 308 306 304 302 299 298 296 294 292 291 288 286 284 281 278 274 271 268 267 265 264 266 270 272 273 276 280 284 284 282 283 283 285 288 289 289 289 288 289 289 289 288 287 286 285 284 284 285 286 285 286 287 285 282
261 240 189 168 172 184 143 103 55 113 241 346 34 242 273 325 222 232 248 264 270 263 255 257 261 265 266 268 272 274 274 274 275 279 285 291 297 302 305 308 312 313 311 309 306 305 303 300 299 298 297 295 294 292 288 283 281 279 277 275 273 270 269 268 270 272 272 274 276 277 279 281 281 282 282 284 286 288 288 288 288 289 289 289 289 287 286 285 285 286 285 284 284 285 284 281 281
242 289 172 164 164 170 172 151 150 190 228 309 279 208 273 288 258 208 205 240 269 259 254 260 257 258 263 266 270 273 277 280 282 286 293 300 304 310 313 313 316 316 313 310 309 308 306 304 302 300 299 298 296 295 291 286 282 280 279 278 276 274 273 272 273 273 273 273 274 275 278 280 281 282 282 283 285 286 286 287 288 288 288 288 288 288 287 287 286 285 283 282 282 282 282 282 282
236 301 104 141 147 148 165 156 160 173 173 243 202 151 243 272 254 238 196 209 252 254 246 251 253 258 264 269 273 277 282 286 290 296 304 311 314 318 321 323 324 326 324 318 316 313 309 307 304 301 301 300 297 294 290 287 284 281 279 278 276 276 276 275 274 273 272 273 274 276 277 279 281 282 282 282 283 284 284 285 286 286 286 287 287 287 286 285 284 283 283 283 282 282 282 283 282
202 122 77 73 71 70 101 138 143 147 186 233 194 161 224 269 227 189 57 200 240 247 241 248 255 260 266 273 278 286 293 296 303 316 328 335 339 341 343 345 345 345 342 335 329 322 315 310 306 303 301 299 295 290 286 283 283 281 279 277 276 276 277 276 275 273 272 273 275 276 277 279 281 282 281 282 282 283 283 284 285 285 285 285 284 284 283 282 282 282 283 283 283 282 282 282 282
104 77 59 53 56 57 60 73 101 146 231 241 190 172 193 275 248 176 164 204 213 229 253 261 259 260 265 276 288 302 316 323 331 346 2 14 22 25 25 24 21 16 9 1 354 345 336 325 317 312 308 301 294 285 278 276 277 278 278 278 277 276 275 275 275 274 274 275 276 277 279 279 280 279 279 279 279 280 282 283 283 284 283 283 281 281 281 281 281 282 282 282 282 282 282 282 282
78 69 80 71 31 42 62 38 67 164 248 252 183 167 172 235 271 273 269 266 209 212 253 261 257 263 271 290 318 340 354 4 12 22 33 40 41 39 36 33 30 26 21 17 13 7 359 349 338 330 322 314 306 292 281 275 273 273 274 276 277 278 277 276 275 275 275 274 275 276 276 275 274 274 274 275 275 278 281 283 283 283 282 281 281 280 280 279 279 279 279 279 280 281 281 281 281
85 88 86 84 21 21 90 176 106 204 259 283 158 151 166 237 253 265 278 280 266 242 258 262 264 274 295 334 2 19 35 44 46 44 41 38 36 31 28 25 22 21 19 16 14 11 7 4 358 352 345 336 332 323 308 296 287 280 276 275 275 277 277 276 276 275 273 272 272 272 272 272 273 273 274 275 276 278 279 279 279 278 277 277 278 278 278 278 279 279 278 279 279 279 280 281 280
134 134 119 122 127 78 218 212 96 237 270 321 113 137 191 279 266 240 254 271 290 308 286 277 279 290 7 52 60 59 55 50 43 39 36 33 31 25 19 16 13 12 11 9 7 5 4 4 2 2 359 352 348 345 342 338 323 305 293 285 281 278 276 275 274 273 272 270 269 270 273 275 277 277 277 277 277 276 274 274 275 275 276 277 277 277 278 278 278 278 278 278 278 279 280 280 280
166 165 138 139 154 160 192 196 167 237 278 330 14 141 191 237 225 167 225 266 352 34 51 70 71 81 84 77 68 57 44 36 33 31 30 29 23 16 11 9 8 7 7 5 3 1 360 359 358 358 358 356 354 351 347 350 351 345 330 310 298 288 282 279 276 274 272 270 270 271 274 276 278 279 279 279 278 276 275 275 276 276 276 276 275 275 275 274 274 274 274 275 275 277 277 278 279
241 128 109 134 186 146 152 193 168 166 295 325 298 217 228 228 258 316 261 321 34 51 67 78 81 83 78 67 54 44 34 30 28 25 21 16 11 8 8 8 8 8 7 6 5 2 359 357 354 353 354 354 355 354 351 346 343 345 345 337 325 307 293 285 279 276 273 273 273 273 274 275 275 277 278 278 278 278 278 278 277 275 275 273 272 272 271 271 272 271 272 273 273 274 275 276 277
206 98 141 205 91 115 123 260 145 112 270 261 174 226 295 304 301 336 45 51 39 46 59 68 72 70 62 49 40 34 28 25 24 20 13 6 5 7 9 10 11 10 9 8 7 5 2 358 354 350 348 349 352 355 354 350 343 336 331 329 325 315 304 292 282 277 274 272 271 271 272 272 274 277 278 279 279 279 279 279 278 278 277 275 273 273 272 272 272 272 272 273 273 274 274 274 275
115 149 191 143 30 77 105 254 17 79 254 244 161 200 271 333 283 329 38 51 37 34 44 54 60 57 46 36 31 26 20 18 15 10 6 4 5 6 5 7 8 8 8 6 4 2 0 359 355 350 347 346 347 346 347 348 346 340 331 326 321 313 306 299 293 286 280 276 275 273 272 271 272 274 275 276 276 276 276 277 278 279 279 279 279 279 279 278 277 276 275 275 276 276 274 274 275
115 170 168 105 93 49 92 166 186 189 237 273 223 213 219 203 226 319 357 38 56 37 31 42 43 38 33 28 24 18 13 10 7 5 4 4 5 4 2 0 358 358 358 358 357 355 355 355 353 350 345 341 340 338 337 339 341 341 337 332 328 322 314 305 296 288 282 278 276 274 272 271 271 270 271 272 272 272 273 275 277 279 281 282 284 284 284 284 282 281 280 280 280 278 277 276 277
47 71 37 56 136 160 155 160 143 160 204 280 285 259 239 235 212 191 290 115 99 58 31 38 31 28 27 23 18 13 9 6 5 5 5 5 4 2 1 358 355 354 353 352 351 350 349 349 349 349 345 340 338 336 334 333 333 334 333 329 328 328 324 315 304 293 284 279 276 274 273 272 271 271 272 272 273 274 275 275 277 279 280 282 283 283 284 284 284 284 284 284 283 281 279 279 279
80 83 14 350 105 131 58 358 119 126 142 210 266 270 265 256 196 167 190 149 93 50 33 29 23 26 25 18 11 6 6 9 10 10 8 5 2 358 357 355 353 351 350 349 347 346 345 344 343 344 343 342 340 335 331 329 329 330 328 324 322 324 325 321 312 302 293 285 280 278 277 276 276 275 274 275 276 277 277 277 277 276 277 276 276 277 278 279 281 283 285 286 286 285 282 282 282
149 147 189 186 163 118 313 273 195 113 133 175 200 249 264 253 190 171 166 105 52 36 46 36 18 17 13 8 8 8 11 14 15 13 8 4 0 357 354 352 349 347 346 345 343 341 341 340 340 339 338 339 339 336 331 325 323 324 322 317 314 315 318 317 312 307 302 295 288 283 282 281 280 279 279 279 280 281 282 283 282 280 277 273 271 271 273 277 280 283 285 286 287 287 285 284 283